Wind_Speed
34 37 39 41 44 45 47 49 51 52 52 53 54 55 56 57 56 52 54 55 54 51 60 63 65 61 61 55 55 62 61 61 59 58 60 59 57 57 61 59 56 56 56 60 63 64 67 72 75 77 81 86 88 91
29 32 34 36 38 39 41 43 44 44 45 46 47 48 47 47 46 43 48 51 45 40 55 61 56 54 53 57 51 54 50 55 53 53 53 55 54 54 57 57 56 54 55 58 59 61 63 68 71 74 76 78 81 83
25 28 31 33 35 36 37 38 38 39 40 43 42 41 42 41 42 39 45 44 38 43 57 55 55 48 45 48 47 45 50 50 50 49 48 47 52 55 57 55 51 46 48 49 54 58 63 67 72 72 71 73 77 75
22 25 27 30 31 32 33 34 35 36 38 37 36 37 38 37 35 35 40 41 40 47 49 47 41 45 46 42 42 45 48 45 46 45 48 48 47 51 51 50 46 43 44 48 48 57 61 69 70 66 65 69 71 72
17 20 22 24 26 28 30 31 31 30 28 29 32 32 31 31 32 33 34 36 38 38 40 42 41 41 40 38 38 41 42 42 42 43 47 47 48 48 45 43 39 41 43 47 51 59 61 65 65 60 59 59 58 60
10 13 15 18 20 21 22 24 24 24 26 26 25 23 25 27 27 27 30 32 31 31 34 34 34 30 31 36 38 39 42 43 41 43 47 46 47 45 41 35 34 40 48 51 54 56 57 58 60 54 50 49 49 51
8 9 10 12 12 13 15 16 18 18 21 19 19 22 23 22 22 25 24 25 25 26 26 24 24 27 30 32 32 33 36 39 41 41 40 41 39 36 34 30 38 47 54 52 51 49 47 46 43 40 41 44 47 52
4 5 7 8 10 10 11 13 14 16 15 16 18 19 19 20 20 22 22 23 23 22 22 24 24 26 28 27 27 29 34 36 33 29 31 35 38 39 35 41 49 50 44 38 35 34 39 40 41 44 44 44 47 45
8 6 4 3 6 9 10 11 12 12 14 15 17 17 17 18 19 21 22 22 23 24 24 25 25 27 27 27 28 30 30 28 28 30 34 36 38 37 44 45 40 32 28 32 35 33 33 35 36 38 40 40 39 36
9 6 4 1 2 3 5 8 9 11 12 14 14 15 17 19 19 20 21 22 23 23 23 22 25 27 27 27 29 29 29 29 34 37 38 35 35 37 37 26 27 35 30 26 27 33 33 32 31 33 35 34 31 30
12 9 6 4 4 3 4 6 7 8 11 13 14 16 17 18 18 19 19 20 23 23 23 23 25 26 28 28 27 26 28 30 32 31 26 23 24 27 16 25 22 23 26 27 29 28 27 25 25 25 26 26 27 27
13 11 9 8 7 6 5 5 5 6 8 10 11 12 13 15 16 18 21 20 22 25 26 24 23 23 24 23 23 23 23 20 20 22 18 18 19 21 21 22 24 24 22 22 20 18 20 22 24 22 21 22 21 20
16 14 12 10 8 6 6 7 6 6 7 9 12 12 13 15 14 15 16 18 19 20 20 20 21 20 20 19 20 21 19 19 19 18 16 19 19 19 20 20 20 19 19 18 17 18 19 18 16 15 15 15 17 18
17 15 13 11 9 9 7 5 5 7 7 9 10 11 14 15 15 18 19 18 16 17 18 18 17 16 16 18 19 18 18 17 16 22 24 19 17 18 19 17 17 17 15 14 12 12 12 11 11 13 14 15 15 14
20 17 14 12 11 9 8 7 6 6 6 5 6 7 9 12 15 15 17 18 19 18 17 17 16 17 19 21 24 23 19 19 20 18 17 16 17 15 13 12 12 12 10 10 11 11 11 12 12 13 13 13 12 13
21 19 17 13 11 10 8 7 6 6 6 8 8 8 7 10 10 13 15 17 17 18 18 18 19 21 21 19 19 15 15 18 17 15 15 16 16 14 14 13 11 11 13 13 13 13 13 13 13 13 13 12 12 12
24 22 19 17 13 10 8 5 4 3 7 6 7 8 6 9 11 13 14 15 16 16 18 17 18 18 17 15 15 16 17 15 15 17 18 18 17 16 16 16 16 16 15 15 14 13 12 12 11 10 10 11 12 13
25 22 20 18 16 12 9 7 5 2 3 5 4 3 5 7 9 10 11 12 15 16 17 18 18 18 16 16 16 16 16 16 17 16 16 17 17 17 18 18 17 16 15 13 11 10 8 8 10 11 12 13 13 15
25 23 21 17 16 14 11 8 4 2 1 1 3 4 6 8 9 9 9 9 11 14 14 15 16 16 16 17 17 17 18 17 18 18 18 18 19 20 19 18 15 12 11 9 8 8 9 10 11 13 14 15 16 17
26 23 21 18 15 13 12 11 6 4 5 6 6 7 9 10 11 11 10 10 11 11 11 13 15 17 18 20 20 20 21 21 21 21 20 20 20 18 16 13 11 10 9 9 9 10 10 11 13 14 15 17 18 20
25 23 21 19 17 14 12 11 9 7 6 6 8 8 10 12 13 14 14 14 13 12 16 17 17 19 19 21 20 21 22 22 21 20 20 19 17 15 13 12 11 10 9 10 11 12 13 14 15 17 18 19 21 23
23 22 20 19 17 16 13 11 9 7 7 8 8 9 11 11 13 15 17 17 20 20 20 19 20 20 22 21 22 23 23 22 21 20 19 17 15 13 13 13 12 12 13 13 14 16 17 18 19 20 21 23 25 27
23 21 20 18 17 16 14 13 11 7 7 7 9 9 10 10 11 13 14 16 20 21 20 21 22 24 24 24 24 24 23 22 22 21 20 19 17 16 16 17 17 17 17 18 18 19 20 21 22 23 25 26 28 30
22 20 19 18 17 15 13 12 11 10 9 7 7 9 10 11 12 13 13 15 19 19 21 24 25 26 26 26 26 25 24 24 23 22 21 21 20 19 19 20 21 21 22 21 22 23 24 25 26 27 28 30 32 34
21 20 19 17 16 16 14 12 11 10 10 9 8 8 9 11 13 13 14 16 17 18 20 23 25 26 26 26 26 25 24 24 23 21 20 21 21 20 22 23 23 24 24 24 26 27 28 29 29 30 32 34 35 36
19 19 19 17 17 16 15 14 12 11 10 9 9 10 12 11 11 11 13 17 19 20 19 20 23 25 25 25 26 26 25 24 24 23 23 23 24 24 25 25 26 26 27 27 28 30 31 32 32 34 35 37 38 39
20 17 17 19 17 15 15 15 14 13 12 11 10 10 12 12 11 9 15 19 19 21 21 22 23 24 25 25 26 27 26 26 26 26 26 26 26 26 26 27 28 30 31 31 32 33 33 34 35 37 38 39 41 41
22 20 19 16 16 17 16 14 14 15 14 14 12 12 14 13 10 11 16 20 21 21 22 23 25 25 25 26 27 28 28 29 29 29 29 29 29 29 30 31 32 33 34 34 34 35 36 37 38 40 41 42 41 40
23 20 19 20 18 15 15 16 15 15 15 16 15 15 15 12 12 15 15 17 22 23 23 25 26 28 29 30 30 31 31 31 31 32 32 32 32 32 34 34 34 35 36 37 37 38 39 40 41 42 41 40 40 39
23 22 19 19 20 20 18 15 15 16 16 17 17 16 16 15 15 17 17 16 16 20 23 26 27 27 28 31 33 35 35 35 36 35 35 35 35 37 37 37 38 38 39 39 40 41 41 42 42 41 40 40 39 39
22 19 20 19 19 21 22 20 17 16 17 18 18 17 18 19 17 16 16 16 19 21 24 25 26 28 29 30 32 34 35 35 36 36 36 36 37 38 39 40 40 40 41 41 42 42 42 42 42 41 40 40 38 38
24 19 19 19 19 19 21 23 21 19 19 18 18 18 19 20 16 17 21 22 22 23 24 25 26 26 27 29 31 32 33 33 35 36 36 36 37 38 39 39 40 41 41 42 41 41 41 40 40 40 39 39 37 36
22 21 20 20 21 20 21 22 22 22 21 21 19 19 19 19 18 21 22 23 24 24 24 24 25 25 26 28 28 29 30 30 32 34 35 35 36 37 38 38 39 40 40 40 40 40 40 40 40 39 37 36 36 36
Wind_Direction
239 240 241 241 243 243 244 244 245 246 248 249 250 250 250 251 252 252 253 253 250 246 250 252 251 252 253 254 250 250 253 256 255 252 251 251 250 249 254 254 251 250 249 249 248 249 248 252 255 255 253 254 256 259
244 245 245 245 245 245 245 246 247 248 249 249 250 250 251 252 252 249 250 249 247 243 243 246 248 249 246 243 243 246 246 249 250 250 250 249 249 249 250 250 248 246 245 247 250 252 252 252 254 255 255 255 257 258
248 248 247 247 247 246 247 248 248 247 247 247 248 249 249 250 249 245 246 248 241 235 241 246 244 250 250 245 243 241 240 241 242 241 244 245 245 247 251 255 254 252 250 249 250 251 251 251 251 253 255 258 262 260
250 248 248 249 249 249 248 247 247 246 246 248 249 249 247 247 247 244 243 244 237 235 239 245 243 240 242 241 238 238 240 243 241 240 241 243 243 245 248 250 255 255 253 248 245 246 248 251 253 254 254 256 260 265
254 250 247 246 247 246 246 247 248 248 247 244 242 244 244 244 241 239 239 239 237 235 237 239 240 238 238 239 239 238 239 239 240 241 243 245 246 247 250 250 254 251 252 250 246 247 249 254 260 262 263 262 262 264
264 261 257 252 246 245 245 244 244 242 241 241 238 235 232 230 230 231 231 234 236 235 236 237 240 244 240 235 235 234 234 233 233 236 241 244 248 251 251 258 257 253 250 250 249 253 256 258 262 267 269 273 271 267
302 288 271 259 253 246 243 240 238 239 236 233 229 227 226 223 221 223 224 225 226 227 227 231 230 233 233 233 237 239 239 239 237 240 242 247 250 252 255 258 250 250 250 251 254 259 263 267 269 268 263 255 252 253
334 287 279 265 256 246 236 226 222 223 224 221 222 223 219 218 214 216 212 215 214 214 213 210 212 218 225 227 226 227 233 236 240 242 243 241 242 243 250 246 245 249 259 267 273 268 260 252 250 250 255 253 249 253
11 360 326 258 225 218 217 216 214 210 207 211 213 212 208 209 208 207 205 205 205 206 209 209 204 212 217 223 222 222 223 228 229 228 230 235 238 239 241 250 261 269 263 253 253 258 259 259 254 251 249 249 251 253
19 25 17 311 204 189 190 195 197 194 196 202 204 203 204 202 203 205 201 203 205 207 209 208 210 215 217 221 227 226 221 219 223 230 237 241 243 247 250 260 252 247 251 255 258 255 256 256 253 251 253 253 251 252
29 39 34 47 85 118 155 186 193 191 192 200 202 200 199 199 199 202 202 204 205 206 209 208 211 213 215 221 225 229 231 230 235 238 238 242 242 248 253 252 259 262 260 258 254 252 252 254 253 252 249 249 251 250
33 44 54 66 80 103 129 152 168 182 189 192 194 194 196 199 201 204 207 213 212 210 209 213 220 221 220 227 229 234 240 247 247 246 251 245 254 266 265 258 253 246 244 244 243 244 249 248 246 244 242 240 245 250
30 39 50 52 68 93 118 126 145 164 172 176 176 177 181 186 187 200 211 216 222 223 223 226 228 231 233 231 234 237 237 246 251 260 267 254 244 244 243 243 244 241 236 231 226 222 221 225 228 236 243 246 248 250
28 34 38 44 56 68 76 101 123 139 163 178 186 195 192 195 195 196 199 209 218 221 219 221 225 225 225 229 232 234 231 230 235 233 236 233 221 220 221 220 222 216 207 206 208 216 221 227 233 233 234 237 237 239
27 28 37 45 56 67 73 77 105 119 120 133 161 177 185 187 199 198 197 198 203 202 204 206 208 210 216 220 218 218 213 208 213 219 223 219 214 205 199 197 198 196 197 198 204 210 211 210 216 220 225 229 232 239
26 26 27 30 39 49 68 81 93 122 132 144 153 171 194 206 196 199 202 198 195 201 203 207 206 211 215 212 207 197 203 200 207 210 208 203 194 192 189 186 187 186 188 192 193 194 197 205 211 219 227 236 247 259
15 19 21 20 23 28 38 57 81 124 116 137 148 162 173 192 196 202 205 202 202 200 202 202 203 199 198 192 188 191 199 191 192 197 196 193 187 187 179 176 178 182 182 184 187 191 201 214 225 240 253 261 268 273
12 13 13 16 14 12 16 21 24 38 92 117 118 164 176 189 199 204 207 206 203 200 199 193 191 186 188 191 191 192 190 190 190 193 188 184 184 179 177 174 178 180 182 187 197 207 224 239 252 260 267 273 281 288
11 8 8 8 10 9 4 358 345 326 287 224 192 178 195 197 201 208 210 212 214 211 208 202 197 190 187 188 188 188 183 180 182 182 179 181 179 177 179 180 181 185 193 204 219 236 248 260 270 274 278 282 287 292
6 5 3 2 360 1 2 356 338 301 271 248 231 224 209 202 203 205 205 202 204 206 203 195 192 188 187 186 185 186 181 181 180 180 180 181 184 184 184 187 194 204 217 230 243 257 270 276 278 280 282 285 288 293
4 0 359 356 355 352 350 348 341 325 289 250 244 231 227 225 213 208 207 200 197 194 195 194 195 196 196 192 187 186 184 179 180 181 184 188 190 192 198 206 215 230 243 256 268 274 279 280 282 284 287 289 292 296
3 360 357 354 351 349 344 340 336 331 317 282 255 241 233 229 228 226 221 212 204 198 200 199 196 197 193 190 186 185 184 185 188 191 195 199 201 208 215 222 232 245 257 264 269 275 279 282 285 288 291 293 297 300
356 357 356 351 348 346 343 338 332 320 318 296 280 257 242 234 232 236 232 227 221 217 204 201 200 198 194 190 189 190 191 194 197 201 205 208 212 220 228 235 241 249 256 263 269 274 280 284 287 290 294 298 301 303
350 352 350 349 344 340 340 333 330 320 303 300 288 272 259 242 232 229 225 228 231 235 215 206 205 203 198 199 198 199 201 203 207 211 218 222 225 232 238 244 249 254 261 267 274 279 281 284 288 292 295 298 301 303
343 343 343 341 341 338 333 329 324 317 308 303 281 275 263 253 245 236 227 225 232 236 231 221 213 210 210 209 209 210 214 217 220 225 231 236 243 248 254 258 262 267 271 273 276 279 282 285 289 293 296 300 304 307
343 337 336 333 333 333 332 326 321 315 310 301 290 272 263 262 261 253 240 237 232 233 237 234 227 224 220 218 219 221 223 225 227 231 235 239 243 247 252 257 261 266 269 271 273 277 282 286 291 296 300 303 305 307
334 336 330 325 324 324 324 323 321 312 305 302 296 283 275 267 258 246 242 247 244 238 235 235 235 234 231 229 230 232 234 235 236 238 242 245 249 254 258 261 263 265 268 271 275 279 284 289 292 296 299 301 304 306
330 328 326 322 317 316 317 315 312 311 304 295 291 281 273 273 271 250 236 243 248 247 243 240 240 239 237 237 239 242 244 246 247 248 249 250 253 256 260 263 265 268 272 275 279 282 286 289 292 295 297 300 303 304
324 324 320 317 316 310 306 307 304 301 300 299 292 281 280 279 263 255 249 243 246 249 248 245 242 241 242 242 244 246 248 249 250 252 254 256 257 260 262 265 269 272 275 277 280 282 285 288 290 293 297 299 301 303
320 317 314 310 310 308 305 300 294 292 293 292 293 288 282 276 267 264 264 261 253 246 248 251 251 248 247 247 248 249 251 252 252 252 254 256 258 260 264 267 269 272 274 277 279 283 285 288 290 293 296 297 299 302
313 308 305 305 303 301 300 298 291 287 285 285 286 285 283 278 275 275 270 261 252 247 246 247 248 249 249 249 250 251 252 254 257 259 260 261 262 263 266 268 270 272 274 276 279 281 283 286 288 290 292 294 298 301
313 306 301 296 297 294 293 291 291 289 284 281 278 280 277 280 280 268 261 258 257 255 255 254 254 254 254 254 253 253 255 255 257 260 261 262 263 265 266 268 270 271 273 275 277 279 281 283 285 288 291 294 297 297
310 304 297 292 290 288 285 284 284 283 282 279 277 275 275 274 272 270 270 266 262 262 263 263 262 261 261 262 262 262 262 261 259 260 261 261 262 263 264 265 267 269 271 273 275 278 280 282 285 288 290 292 293 294
Height
9994 9997 10000 10003 10007 10010 10014 10017 10020 10024 10029 10033 10038 10041 10044 10046 10051 10060 10061 10064 10069 10079 10074 10073 10075 10086 10090 10102 10107 10103 10110 10115 10120 10127 10131 10137 10144 10148 10146 10153 10162 10167 10173 10176 10179 10186 10189 10187 10189 10195 10200 10202 10205 10207
9987 9989 9991 9993 9996 9999 10002 10005 10008 10013 10016 10020 10023 10026 10030 10033 10038 10046 10045 10045 10057 10067 10055 10053 10064 10071 10074 10074 10090 10092 10099 10098 10106 10113 10120 10123 10129 10133 10134 10139 10145 10153 10158 10162 10167 10168 10172 10171 10172 10172 10176 10184 10189 10192
9980 9981 9982 9984 9985 9988 9990 9993 9997 10001 10004 10006 10009 10013 10017 10021 10024 10030 10029 10034 10043 10047 10037 10044 10048 10057 10070 10070 10077 10085 10083 10086 10092 10098 10103 10110 10115 10116 10119 10125 10132 10138 10143 10150 10150 10151 10150 10152 10152 10158 10163 10166 10166 10175
9973 9974 9974 9975 9977 9979 9981 9984 9986 9989 9991 9995 9999 10002 10005 10009 10013 10017 10016 10021 10026 10028 10030 10035 10047 10048 10052 10061 10066 10069 10070 10077 10081 10086 10087 10094 10100 10104 10109 10114 10119 10124 10127 10128 10135 10131 10132 10129 10133 10144 10150 10150 10152 10154
9967 9967 9967 9968 9969 9970 9972 9974 9976 9979 9983 9985 9987 9992 9996 9999 10001 10004 10007 10009 10012 10018 10023 10025 10031 10036 10042 10050 10054 10056 10061 10066 10071 10074 10078 10083 10088 10093 10098 10104 10110 10110 10112 10113 10117 10115 10119 10120 10122 10128 10131 10135 10139 10141
9961 9961 9960 9960 9961 9962 9965 9967 9969 9971 9973 9976 9980 9984 9985 9988 9992 9994 9996 9999 10004 10009 10014 10019 10025 10031 10037 10036 10040 10047 10052 10057 10061 10065 10068 10074 10078 10082 10088 10095 10097 10098 10097 10099 10101 10104 10108 10110 10112 10117 10118 10119 10120 10122
9957 9955 9954 9954 9955 9957 9958 9959 9961 9964 9966 9969 9972 9974 9976 9981 9985 9986 9991 9993 9997 10002 10007 10013 10018 10022 10025 10030 10033 10038 10042 10047 10051 10055 10061 10065 10070 10074 10080 10086 10084 10082 10080 10086 10090 10094 10098 10100 10103 10104 10104 10105 10107 10107
9955 9953 9952 9952 9952 9952 9953 9955 9957 9959 9962 9964 9966 9969 9972 9975 9979 9982 9986 9987 9991 9996 10001 10006 10010 10014 10017 10024 10028 10031 10034 10037 10043 10050 10054 10057 10060 10065 10072 10070 10067 10068 10075 10081 10083 10084 10083 10083 10086 10087 10090 10093 10094 10097
9954 9952 9951 9950 9950 9950 9951 9952 9954 9956 9958 9961 9963 9966 9969 9972 9975 9978 9981 9984 9988 9993 9996 10000 10005 10007 10011 10015 10020 10024 10029 10033 10039 10041 10044 10047 10052 10057 10055 10056 10061 10065 10068 10068 10068 10070 10072 10073 10075 10075 10076 10080 10083 10086
9955 9953 9951 9950 9949 9950 9952 9953 9954 9956 9958 9959 9961 9965 9967 9969 9972 9975 9979 9982 9985 9988 9991 9996 9998 10001 10005 10008 10011 10017 10022 10026 10028 10030 10034 10040 10046 10046 10047 10054 10056 10055 10058 10059 10060 10063 10063 10064 10065 10066 10068 10071 10073 10076
9956 9954 9953 9951 9950 9951 9952 9952 9954 9955 9957 9958 9959 9962 9966 9968 9971 9974 9976 9979 9982 9985 9988 9991 9994 9996 9999 10003 10006 10010 10014 10018 10022 10026 10031 10036 10037 10037 10046 10043 10044 10046 10049 10051 10054 10055 10055 10056 10057 10059 10061 10063 10066 10069
9960 9957 9955 9953 9952 9952 9952 9952 9954 9956 9958 9959 9960 9962 9965 9967 9969 9971 9973 9976 9980 9983 9985 9988 9991 9994 9997 10000 10003 10006 10010 10013 10017 10019 10024 10029 10031 10032 10035 10037 10040 10042 10044 10045 10046 10046 10048 10050 10052 10054 10056 10058 10060 10062
9964 9960 9957 9956 9956 9955 9954 9954 9955 9956 9958 9960 9962 9964 9965 9967 9970 9972 9975 9976 9978 9981 9984 9988 9992 9994 9996 9999 10002 10005 10008 10010 10014 10017 10021 10024 10026 10029 10031 10032 10034 10036 10037 10039 10040 10043 10045 10047 10048 10050 10051 10053 10055 10056
9967 9964 9961 9959 9958 9958 9957 9957 9956 9957 9958 9960 9962 9964 9966 9968 9970 9972 9973 9976 9979 9982 9985 9987 9990 9993 9995 9997 9999 10003 10006 10008 10011 10013 10015 10018 10021 10023 10025 10028 10030 10031 10032 10035 10037 10039 10041 10042 10044 10046 10048 10049 10051 10052
9971 9968 9967 9964 9962 9961 9960 9959 9959 9960 9960 9962 9963 9964 9966 9967 9969 9971 9973 9975 9977 9979 9982 9986 9989 9991 9993 9995 9999 10001 10002 10005 10006 10008 10012 10015 10017 10019 10021 10023 10025 10027 10030 10032 10035 10037 10038 10040 10042 10043 10044 10045 10047 10048
9975 9971 9969 9966 9965 9964 9962 9961 9962 9961 9961 9961 9963 9965 9966 9967 9969 9970 9972 9974 9975 9977 9980 9983 9984 9987 9989 9993 9995 9997 10000 10001 10003 10007 10010 10012 10014 10016 10018 10020 10023 10026 10029 10031 10033 10035 10037 10039 10040 10041 10042 10044 10045 10045
9977 9974 9971 9969 9967 9966 9965 9964 9963 9963 9962 9963 9964 9965 9967 9968 9969 9970 9972 9973 9974 9976 9979 9982 9984 9985 9987 9990 9992 9995 9998 10000 10003 10006 10009 10011 10013 10015 10017 10020 10023 10026 10028 10030 10032 10034 10036 10037 10039 10040 10040 10041 10041 10041
9980 9978 9974 9971 9968 9967 9966 9965 9964 9963 9962 9962 9963 9965 9966 9966 9967 9969 9970 9972 9974 9976 9978 9980 9982 9984 9986 9988 9991 9994 9996 9998 10001 10004 10006 10009 10011 10014 10017 10020 10022 10025 10027 10029 10031 10032 10034 10035 10036 10036 10037 10037 10037 10037
9983 9979 9976 9973 9970 9968 9967 9966 9965 9964 9964 9963 9963 9964 9965 9966 9966 9967 9969 9972 9973 9975 9977 9979 9981 9983 9985 9988 9990 9993 9995 9998 10000 10003 10005 10008 10011 10014 10017 10019 10021 10023 10025 10027 10028 10030 10031 10032 10032 10032 10033 10033 10032 10032
9985 9981 9977 9974 9972 9969 9968 9967 9966 9965 9964 9964 9964 9964 9964 9965 9966 9967 9968 9970 9972 9974 9976 9978 9980 9981 9983 9986 9988 9991 9994 9996 9999 10002 10005 10008 10011 10014 10016 10018 10020 10022 10023 10025 10026 10026 10027 10028 10028 10028 10028 10028 10027 10027
9986 9982 9978 9974 9971 9969 9967 9965 9964 9964 9963 9963 9963 9963 9963 9964 9964 9965 9967 9968 9970 9972 9974 9975 9977 9979 9982 9984 9987 9990 9993 9996 9999 10002 10005 10008 10010 10012 10014 10016 10018 10019 10020 10021 10022 10023 10023 10024 10024 10024 10023 10022 10021 10020
9985 9982 9978 9974 9971 9968 9966 9965 9963 9962 9962 9962 9961 9961 9961 9961 9962 9963 9964 9966 9967 9968 9970 9972 9974 9977 9980 9982 9985 9988 9991 9994 9998 10001 10003 10005 10008 10010 10011 10013 10015 10016 10017 10018 10019 10019 10019 10019 10018 10018 10017 10016 10014 10012
9984 9980 9977 9973 9970 9966 9964 9962 9961 9960 9959 9959 9959 9959 9959 9959 9959 9960 9962 9963 9964 9965 9967 9969 9972 9975 9978 9980 9983 9986 9989 9992 9995 9997 10000 10002 10004 10006 10008 10009 10011 10011 10012 10013 10013 10013 10013 10012 10012 10010 10009 10008 10006 10004
9982 9978 9975 9971 9968 9966 9963 9960 9959 9957 9956 9955 9955 9955 9956 9956 9956 9957 9958 9960 9962 9963 9964 9966 9968 9971 9974 9977 9980 9983 9985 9988 9991 9994 9996 9998 10000 10001 10003 10004 10005 10006 10007 10007 10007 10006 10006 10005 10004 10003 10001 10000 9998 9994
9979 9975 9972 9969 9966 9963 9960 9958 9956 9955 9954 9953 9952 9952 9952 9952 9953 9954 9954 9956 9958 9960 9961 9963 9965 9967 9970 9973 9976 9980 9982 9985 9987 9989 9992 9994 9995 9997 9998 9999 10000 10000 10001 10001 10000 9999 9997 9996 9996 9994 9993 9990 9988 9984
9976 9972 9968 9966 9962 9960 9958 9955 9953 9951 9950 9949 9949 9948 9948 9948 9949 9951 9952 9952 9953 9955 9957 9959 9962 9964 9967 9969 9971 9974 9976 9979 9981 9983 9985 9987 9988 9990 9991 9992 9992 9993 9993 9993 9992 9991 9989 9987 9986 9984 9982 9980 9977 9973
9970 9967 9964 9961 9958 9956 9953 9952 9950 9948 9946 9945 9945 9944 9944 9944 9945 9947 9947 9947 9949 9951 9953 9955 9957 9960 9962 9964 9966 9967 9970 9972 9974 9975 9977 9979 9980 9982 9983 9984 9984 9984 9983 9983 9982 9981 9980 9979 9977 9974 9972 9969 9966 9963
9964 9960 9958 9956 9954 9951 9949 9947 9945 9944 9943 9942 9940 9939 9939 9939 9941 9942 9942 9941 9943 9945 9947 9950 9951 9953 9955 9957 9959 9960 9962 9964 9966 9968 9969 9970 9972 9973 9973 9974 9974 9974 9973 9973 9973 9972 9970 9969 9967 9964 9962 9959 9956 9953
9956 9954 9951 9949 9947 9946 9944 9941 9940 9939 9938 9936 9936 9935 9933 9934 9935 9934 9935 9936 9937 9937 9939 9941 9943 9945 9947 9949 9950 9951 9953 9955 9956 9958 9960 9961 9962 9964 9963 9963 9964 9964 9963 9963 9962 9961 9959 9958 9955 9953 9951 9948 9945 9942
9947 9945 9944 9942 9940 9938 9937 9936 9934 9932 9931 9930 9930 9929 9928 9928 9927 9927 9928 9929 9931 9932 9932 9931 9933 9936 9937 9939 9940 9941 9942 9944 9945 9947 9948 9950 9951 9951 9951 9953 9953 9953 9952 9951 9950 9949 9947 9945 9943 9941 9939 9937 9934 9931
9936 9936 9934 9933 9931 9929 9928 9927 9927 9926 9925 9923 9923 9922 9922 9921 9921 9922 9921 9921 9920 9921 9921 9922 9923 9924 9925 9927 9929 9930 9930 9932 9933 9934 9936 9938 9939 9939 9939 9940 9940 9940 9940 9939 9938 9936 9935 9933 9931 9929 9927 9925 9923 9921
9927 9925 9924 9923 9923 9922 9920 9919 9918 9918 9917 9916 9915 9915 9914 9913 9915 9914 9912 9911 9911 9911 9912 9912 9913 9915 9916 9916 9917 9918 9919 9921 9921 9922 9923 9924 9925 9926 9926 9926 9926 9926 9926 9925 9924 9923 9922 9920 9919 9917 9915 9914 9912 9910
9917 9915 9915 9914 9912 9911 9911 9910 9909 9908 9908 9907 9907 9906 9906 9905 9906 9905 9904 9903 9903 9903 9904 9904 9904 9905 9906 9906 9906 9907 9908 9909 9909 9909 9910 9911 9912 9912 9912 9913 9913 9912 9912 9911 9910 9910 9909 9908 9906 9905 9904 9903 9901 9899